| time (UTC) | temp C | wind direction | speed KPH | gust KPH | rain 1hr cm | rain 24hr cm | rain mn cm | humidity % | barometer mb |
| 20260505230026 | 16 | 283 | 1.6 | 0.0 | 0.00 | 0.00 | 0.00 | 46 | 998.8 |
| 20260505224522 | 16 | 266 | 6.4 | 0.0 | 0.00 | 0.00 | 0.00 | 45 | 999.1 |
| 20260505223021 | 17 | 268 | 1.6 | 0.0 | 0.00 | 0.00 | 0.00 | 42 | 998.8 |
| 20260505221519 | 17 | 224 | 0.0 | 0.0 | 0.00 | 0.00 | 0.00 | 42 | 998.9 |
| 20260505220022 | 17 | 229 | 0.0 | 0.0 | 0.00 | 0.00 | 0.00 | 43 | 999.6 |
| 20260505214517 | 17 | 232 | 0.0 | 0.0 | 0.00 | 0.00 | 0.00 | 44 | 999.6 |
| 20260505213027 | 17 | 240 | 0.0 | 0.0 | 0.00 | 0.00 | 0.00 | 42 | 999.4 |
| 20260505211516 | 17 | 261 | 0.0 | 0.0 | 0.00 | 0.00 | 0.00 | 41 | 999.1 |
| 20260505210015 | 17 | 270 | 0.0 | 0.0 | 0.00 | 0.00 | 0.00 | 40 | 999.5 |
| 20260505204512 | 17 | 242 | 0.0 | 0.0 | 0.00 | 0.00 | 0.00 | 41 | 1000.0 |
| 20260505203009 | 16 | 247 | 0.0 | 0.0 | 0.00 | 0.00 | 0.00 | 44 | 1001.0 |
| 20260505201512 | 15 | 277 | 0.0 | 0.0 | 0.00 | 0.00 | 0.00 | 46 | 1001.1 |
| 20260505200007 | 15 | 286 | 1.6 | 0.0 | 0.00 | 0.00 | 0.00 | 44 | 1001.2 |
| 20260505194503 | 15 | 245 | 0.0 | 0.0 | 0.00 | 0.00 | 0.00 | 43 | 1001.2 |
| 20260505193003 | 15 | 289 | 0.0 | 0.0 | 0.00 | 0.00 | 0.00 | 42 | 1001.2 |
| 20260505191508 | 15 | 269 | 4.8 | 0.0 | 0.00 | 0.00 | 0.00 | 43 | 1000.8 |
| 20260505190005 | 15 | 274 | 4.8 | 0.0 | 0.00 | 0.00 | 0.00 | 44 | 1000.9 |
| 20260505184501 | 15 | 242 | 0.0 | 0.0 | 0.00 | 0.00 | 0.00 | 42 | 1000.8 |
| 20260505183004 | 15 | 264 | 0.0 | 0.0 | 0.00 | 0.00 | 0.00 | 41 | 1000.7 |
| 20260505181501 | 16 | 285 | 0.0 | 0.0 | 0.00 | 0.00 | 0.00 | 41 | 1000.1 |
| 20260505180103 | 16 | 276 | 0.0 | 0.0 | 0.00 | 0.00 | 0.00 | 40 | 1000.2 |
| 20260505174606 | 16 | 282 | 0.0 | 0.0 | 0.00 | 0.00 | 0.00 | 40 | 1000.0 |
| 20260505173101 | 16 | 282 | 0.0 | 0.0 | 0.00 | 0.00 | 0.00 | 40 | 1000.4 |
| 20260505171559 | 15 | 283 | 0.0 | 0.0 | 0.00 | 0.00 | 0.00 | 42 | 1000.4 |
| 20260505170110 | 15 | 283 | 0.0 | 0.0 | 0.00 | 0.00 | 0.00 | 42 | 1000.8 |
| 20260505164558 | 14 | 283 | 0.0 | 0.0 | 0.00 | 0.00 | 0.00 | 43 | 1000.9 |
| 20260505163059 | 13 | 278 | 0.0 | 0.0 | 0.00 | 0.00 | 0.00 | 44 | 1001.2 |
| 20260505161615 | 13 | 305 | 1.6 | 0.0 | 0.00 | 0.00 | 0.00 | 44 | 1001.1 |
| 20260505153103 | 12 | 283 | 8.0 | 0.0 | 0.00 | 0.00 | 0.00 | 49 | 1001.9 |
| 20260505151604 | 12 | 316 | 4.8 | 0.0 | 0.00 | 0.00 | 0.00 | 54 | 1001.5 |
| 20260505124532 | 13 | 261 | 0.0 | 0.0 | 0.00 | 0.00 | 0.00 | 37 | 999.9 |
| 20260505123031 | 13 | 261 | 0.0 | 0.0 | 0.00 | 0.00 | 0.00 | 37 | 999.3 |
| 20260505121529 | 13 | 261 | 0.0 | 0.0 | 0.00 | 0.00 | 0.00 | 35 | 999.1 |
| 20260505120027 | 13 | 261 | 0.0 | 0.0 | 0.00 | 0.00 | 0.00 | 35 | 999.0 |
| 20260505114526 | 14 | 261 | 0.0 | 0.0 | 0.00 | 0.00 | 0.00 | 35 | 998.9 |
| 20260505113024 | 14 | 260 | 0.0 | 0.0 | 0.00 | 0.00 | 0.00 | 34 | 998.6 |
| 20260505111524 | 14 | 261 | 0.0 | 0.0 | 0.00 | 0.00 | 0.00 | 33 | 998.7 |
| 20260505101519 | 15 | 261 | 0.0 | 0.0 | 0.00 | 0.00 | 0.00 | 32 | 998.2 |
| 20260505100020 | 15 | 261 | 0.0 | 0.0 | 0.00 | 0.00 | 0.00 | 31 | 998.1 |
| 20260505094516 | 15 | 261 | 0.0 | 0.0 | 0.00 | 0.00 | 0.00 | 31 | 997.9 |
| 20260505093026 | 15 | 261 | 0.0 | 0.0 | 0.00 | 0.00 | 0.00 | 31 | 998.2 |
| 20260505091516 | 15 | 261 | 0.0 | 0.0 | 0.00 | 0.00 | 0.00 | 32 | 998.0 |
| 20260505090014 | 15 | 261 | 0.0 | 0.0 | 0.00 | 0.00 | 0.00 | 31 | 997.9 |
| 20260505084510 | 16 | 259 | 0.0 | 0.0 | 0.00 | 0.00 | 0.00 | 30 | 998.1 |
| 20260505083008 | 16 | 258 | 1.6 | 0.0 | 0.00 | 0.00 | 0.00 | 30 | 998.5 |
| 20260505081508 | 16 | 278 | 4.8 | 0.0 | 0.00 | 0.00 | 0.00 | 30 | 998.6 |
| 20260505080005 | 16 | 283 | 0.0 | 0.0 | 0.00 | 0.00 | 0.00 | 30 | 998.5 |
| 20260505074504 | 16 | 281 | 3.2 | 0.0 | 0.00 | 0.00 | 0.00 | 29 | 998.4 |
| 20260505073003 | 16 | 276 | 1.6 | 0.0 | 0.00 | 0.00 | 0.00 | 28 | 998.4 |
| 20260505071559 | 17 | 264 | 1.6 | 0.0 | 0.00 | 0.00 | 0.00 | 28 | 998.7 |
| 20260505070057 | 17 | 262 | 0.0 | 0.0 | 0.00 | 0.00 | 0.00 | 26 | 998.3 |
| 20260505064557 | 17 | 247 | 0.0 | 0.0 | 0.00 | 0.00 | 0.00 | 26 | 997.8 |
| 20260505063053 | 17 | 261 | 1.6 | 0.0 | 0.00 | 0.00 | 0.00 | 25 | 997.9 |
| 20260505061553 | 17 | 264 | 1.6 | 0.0 | 0.00 | 0.00 | 0.00 | 24 | 997.9 |
| 20260505060048 | 18 | 265 | 3.2 | 0.0 | 0.00 | 0.00 | 0.00 | 23 | 997.8 |
| 20260505054548 | 18 | 269 | 8.0 | 0.0 | 0.00 | 0.00 | 0.00 | 23 | 997.8 |
| 20260505053049 | 18 | 265 | 1.6 | 0.0 | 0.00 | 0.00 | 0.00 | 22 | 997.8 |
| 20260505051547 | 19 | 256 | 0.0 | 0.0 | 0.00 | 0.00 | 0.00 | 21 | 998.0 |
| 20260505041543 | 19 | 264 | 0.0 | 0.0 | 0.00 | 0.00 | 0.00 | 23 | 998.7 |
| 20260505040043 | 20 | 264 | 0.0 | 0.0 | 0.00 | 0.00 | 0.00 | 22 | 998.2 |
| 20260505034542 | 20 | 264 | 0.0 | 0.0 | 0.00 | 0.00 | 0.00 | 22 | 998.1 |
| 20260505033104 | 20 | 270 | 0.0 | 0.0 | 0.00 | 0.00 | 0.00 | 22 | 997.9 |
| 20260505031542 | 20 | 266 | 3.2 | 0.0 | 0.00 | 0.00 | 0.00 | 21 | 998.3 |
| 20260505030043 | 20 | 265 | 6.4 | 0.0 | 0.00 | 0.00 | 0.00 | 21 | 998.2 |
| 20260505024541 | 21 | 269 | 16.1 | 0.0 | 0.00 | 0.00 | 0.00 | 20 | 997.7 |
| 20260505023048 | 21 | 270 | 9.7 | 0.0 | 0.00 | 0.00 | 0.00 | 20 | 997.6 |
| 20260505021540 | 21 | 269 | 9.7 | 0.0 | 0.00 | 0.00 | 0.00 | 19 | 998.4 |
| 20260505020045 | 21 | 281 | 4.8 | 0.0 | 0.00 | 0.00 | 0.00 | 19 | 997.7 |
| 20260505014539 | 21 | 275 | 6.4 | 0.0 | 0.00 | 0.00 | 0.00 | 19 | 997.5 |
| 20260505013038 | 22 | 278 | 3.2 | 0.0 | 0.00 | 0.00 | 0.00 | 19 | 997.4 |
| 20260505011538 | 22 | 283 | 4.8 | 0.0 | 0.00 | 0.00 | 0.00 | 18 | 997.5 |
| 20260505010040 | 22 | 265 | 3.2 | 0.0 | 0.00 | 0.00 | 0.00 | 16 | 997.5 |
| 20260505004545 | 23 | 269 | 1.6 | 0.0 | 0.00 | 0.00 | 0.00 | 15 | 997.4 |
| 20260505003038 | 23 | 240 | 0.0 | 0.0 | 0.00 | 0.00 | 0.00 | 14 | 997.4 |
| 20260505001535 | 23 | 254 | 1.6 | 0.0 | 0.00 | 0.00 | 0.00 | 14 | 997.4 |
| 20260505000036 | 23 | 265 | 0.0 | 0.0 | 0.00 | 0.00 | 0.00 | 13 | 997.4 |
| 20260504234553 | 23 | 258 | 3.2 | 0.0 | 0.00 | 0.00 | 0.00 | 12 | 997.6 |
| 20260504233035 | 23 | 264 | 1.6 | 0.0 | 0.00 | 0.00 | 0.00 | 12 | 997.6 |
| 20260504231545 | 23 | 236 | 1.6 | 0.0 | 0.00 | 0.00 | 0.00 | 12 | 997.7 |